STARLINK-34374 (64308 NORAD) Tracking and Keplerian Element Data

This shows tracking and keplerian element data for the satellite.

Feedback or suggestion? Click here.




ElementValue
Catalog64308
NameSTARLINK-34374
Epoch Orbit2971
Epoch Day354.22687824
Epoch Year2025
RAAN34.8911
Inclination70.0013
Eccentricity0.0003551
Argument of Perigee272.0207
Mean Anonmoly88.0545
Mean Motion14.98336714
Decay Rate2.481E-05
L11 64308U 25123T 25354.22687824 .00002481 00000+0 21562-3 0 9995
L22 64308 70.0013 34.8911 0003551 272.0207 88.0545 14.98336714 29719



Live tracking and technical data element details for STARLINK-34374 (NORAD 64308). STARLINK-34374 can be tracked NOW for your location showing map with azimuth and elevation plus other details from your city location.







IsCatalogInMostPopularTable: catalog: 64308, numindb: 7
Update: records affected: 1



GetName: 64308 STARLINK-34374

Hit Count: updated at: Mon, 20 Apr 2026 09:12:52 GMT